Location: Laterina
(43.5167°N, 11.7167°E)
Time: 15:31:11
(UTC+00:00)

BREEZE-M DEB (TANK) - Pass Details

Date: 24 September 2020
Orbit: 315 x 16294 km, 49.4° (Epoch: 25 October)

Event Time Altitude Azimuth Distance (km) Brightness Sun altitude
Rises 19:14:13 0° 292° (WNW) 2,505 7.2 -23.5°
Reaches altitude 10° 19:15:36 10° 285° (WNW) 1,899 6.1 -23.7°
Maximum altitude 19:19:19 51° 208° (SSW) 1,261 4.0 -24.3°
Enters shadow 19:22:50 32° 153° (SSE) 2,442 5.1 -24.9°
